Regional Weather Roundup
Issued by NWS

Home | Current Version | Previous Version | Graphics & Text | Print | Product List | Glossary On
Versions: 1 2 3 4 5 6 7 8 9 10 11 12 13 14 15 16 17 18 19 20 21 22 23 24 25 26 27 28 29 30 31 32 33 34 35 36 37 38 39 40 41 42 43 44 45 46 47 48 49 50
000
ASUS43 KOAX 081802
RWRNE

WEATHER ROUNDUP FOR NEBRASKA
NATIONAL WEATHER SERVICE OMAHA NE
1200 PM CST THU DEC 08 2016

NOTES: SATELLITE DATA IS BEING USED TO AUGMENT CLOUD COVER ABOVE
       12000 FEET.
       "FAIR" INDICATES FEW OR NO CLOUDS BELOW 12,000 FEET WITH NO
       SIGNIFICANT WEATHER AND/OR OBSTRUCTIONS TO VISIBILITY.

  * THESE STATIONS DO NOT REPORT WEATHER SUCH AS RAIN...SNOW OR FOG.

NEZ001>004-019>022-054>056-081900-
NEBRASKA PANHANDLE

CITY           SKY/WX    TMP DP  RH WIND       PRES   REMARKS
SCOTTSBLUFF    SUNNY      8  -3  61 W3        30.51F
6HR MIN TEMP: -10; 6HR MAX TEMP:   8;

ALLIANCE       SUNNY     10  -2  58 NW3       30.50F
6HR MIN TEMP: -15; 6HR MAX TEMP:  10;

CHADRON        SUNNY     11  -3  53 VRB6      30.57F WCI   1
6HR MIN TEMP:  -3; 6HR MAX TEMP:  11;

KIMBALL        SUNNY     10   2  72 SW3       30.43F
SIDNEY         SUNNY     10  -1  61 CALM      30.50F
6HR MIN TEMP: -12; 6HR MAX TEMP:  10;

$$

NEZ057>060-069>072-079>082-081900-
SOUTHWEST NEBRASKA

CITY           SKY/WX    TMP DP  RH WIND       PRES   REMARKS
NORTH PLATTE   SUNNY     18   0  45 NW10      30.61F WCI   6
6HR MIN TEMP:  -2; 6HR MAX TEMP:  18;

IMPERIAL       SUNNY     11   0  61 N6        30.60F WCI   1
6HR MIN TEMP:  -3; 6HR MAX TEMP:  11;

LEXINGTON      SUNNY     19   2  47 N10       30.62F WCI   8
MCCOOK         SUNNY     11   1  64 W9        30.66F WCI  -2
6HR MIN TEMP:  -6; 6HR MAX TEMP:  11;

OGALLALA       SUNNY     13   3  63 NW6       30.59F WCI   4
$$

NEZ005>010-023>029-035>040-094-081900-
NORTH CENTRAL NEBRASKA

CITY           SKY/WX    TMP DP  RH WIND       PRES   REMARKS
VALENTINE      SUNNY     12  -4  48 NW16      30.61F WCI  -5
6HR MIN TEMP:   2; 6HR MAX TEMP:  12;

AINSWORTH      SUNNY     13   0  55 NW14G20   30.59F WCI  -2
BROKEN BOW     SUNNY     17   0  47 N16       30.59F WCI   2
6HR MIN TEMP:   6; 6HR MAX TEMP:  18;

O`NEILL        SUNNY     16   3  55 NW16G24   30.61F WCI   1
ORD            SUNNY     18   1  47 NW16      30.61F WCI   3
6HR MIN TEMP:   6; 6HR MAX TEMP:  18;

THEDFORD       SUNNY     15  -1  49 NW15G21   30.58F WCI   0
$$

NEZ041-046>049-061>064-073>077-083>087-081900-
SOUTH CENTRAL NEBRASKA

CITY           SKY/WX    TMP DP  RH WIND       PRES   REMARKS
GRAND ISLAND   SUNNY     19   4  51 NW14G22   30.63F WCI   6
6HR MIN TEMP:   7; 6HR MAX TEMP:  19;

AURORA         SUNNY     19   5  52 NW21      30.62F WCI   3
HASTINGS       SUNNY     19   4  51 NW17G24   30.63F WCI   4
6HR MIN TEMP:   8; 6HR MAX TEMP:  19;

HEBRON         SUNNY     20   7  55 NW13      30.65F WCI   8
HOLDREGE       SUNNY     19   5  53 N10G18    30.61F WCI   8
KEARNEY *      SUNNY     19   1  45 N14       30.62F WCI   6
YORK           SUNNY     19   7  58 NW16      30.62F WCI   5
$$

NEZ011>018-030>034-042>045-081900-
NORTHEAST NEBRASKA

CITY           SKY/WX    TMP DP  RH WIND       PRES   REMARKS
NORFOLK        SUNNY     17   4  56 NW20G26   30.60S WCI   1
6HR MIN TEMP:   7; 6HR MAX TEMP:  17;

ALBION         SUNNY     18   4  53 NW20      30.61F WCI   2
BLAIR          SUNNY     19   9  64 NW15G24   30.59F WCI   5
FREMONT        MOSUNNY   20   8  59 NW20      30.62F WCI   5
TEKAMAH        SUNNY     20   8  60 NW22      30.62F WCI   3
6HR MIN TEMP:  10; 6HR MAX TEMP:  20;

WAYNE          SUNNY     18   6  60 NW18G25   30.59F WCI   2
$$

NEZ050>053-065>068-078-088>093-081900-
SOUTHEAST NEBRASKA

CITY           SKY/WX    TMP DP  RH WIND       PRES   REMARKS
LINCOLN        SUNNY     21   6  52 N16       30.65F WCI   7
6HR MIN TEMP:  11; 6HR MAX TEMP:  21;

OMAHA EPPLEY   MOSUNNY   21   7  54 NW18G24   30.61F WCI   6
6HR MIN TEMP:  11; 6HR MAX TEMP:  21;

BEATRICE       SUNNY     21   7  53 NW15G22   30.64F WCI   8
FALLS CITY     SUNNY     21   7  54 W18G25    30.63F WCI   6
6HR MIN TEMP:  12; 6HR MAX TEMP:  22;

NEBRASKA CITY  SUNNY     20   4  48 NW14G22   30.62S WCI   7
PLATTSMOUTH    MOSUNNY   20   5  51 NW17      30.61F WCI   5
$$

NEZ044-045-051>053-067-081900-
OMAHA AREA

CITY           SKY/WX    TMP DP  RH WIND       PRES   REMARKS
OMAHA EPPLEY   MOSUNNY   21   7  54 NW18G24   30.61F WCI   6
6HR MIN TEMP:  11; 6HR MAX TEMP:  21;

BLAIR          SUNNY     19   9  64 NW15G24   30.59F WCI   5
FREMONT        MOSUNNY   20   8  59 NW20      30.62F WCI   5
MILLARD        MOSUNNY   21   9  58 NW13G21   30.62F WCI   9
OFFUTT AFB     MOSUNNY   20   7  56 NW17G23   30.61F WCI   5
PLATTSMOUTH    MOSUNNY   20   5  51 NW17      30.61F WCI   5
WAHOO          FAIR      21   7  54 NW18      30.62F WCI   6
$$




USA.gov is the U.S. government's official web portal to all federal, state and local government web resources and services.